User: anonymous
Location: Unspecified
(0.0000°N, 0.0000°E)
Time: 19:35:11
(UTC+02:00)
Language:

Cosmos 773 Rocket - Orbit

View from above orbital plane
View from above orbital plane
View from above satellite
View from above satellite

Ground track
Ground track

The orbit data is extracted from the following two-line orbital elements,

1 08344U 75094B   14211.74291654  .00000113  00000-0  45159-4 0  5237
2 08344 074.0569 264.5665 0020990 067.5404 064.3740 14.38767976 34315
Epoch (UTC): 30 July 2014 17:49:47
Eccentricity: 0.0020990
inclination: 74.0569°
perigee height: 747 km
apogee height: 777 km
right ascension of ascending node: 264.5665°
argument of perigee: 67.5404°
revolutions per day: 14.38767976
mean anomaly at epoch: 64.3740°
orbit number at epoch: 3431

The dashed part of the orbit path shows where the satellite is in the earth's shadow,  

DLR